Home > Weather > Tulkarm > Past weeks

Flag for Palestinian Territories Weather for the Past 2 Weeks in Tulkarm, West Bank, Palestinian Territories

Now
63 °F

Scattered clouds.


Feels Like: 63 °F
Forecast: 52 / 58 °F
Wind: 25 mph from Southwest

Location: Dov Airport

Current Time: Feb 6, 2016 at 11:33:48 AM

Latest Report: Feb 6, 2016 at 11:00 AM


Visibility: N/A

Pressure: 29.95 "Hg

Humidity: 64%

Dew point: 50 °F

Location of TulkarmLocation

Historic Weather in Tulkarm — Graph

°F

Tulkarm Temperature Yesterday

Maximum temperature yesterday: 70 °F (at 1:50 PM)
Minimum temperature yesterday: 55 °F (at 6:50 AM)
Average temperature yesterday: 64 °F

High & Low Weather Summary for the Past Weeks

 TemperatureHumidityPressure
High75 °F (Feb 4, 12:50 PM)93% (Jan 25, 11:50 PM)30.42 "Hg (Jan 25, 11:50 PM)
Low39 °F (Jan 28, 5:50 AM)22% (Feb 4, 12:50 PM)29.92 "Hg (Feb 5, 12:50 PM)
Average55 °F65%30.17 "Hg
* Reported Jan 22 10:50 AM — Feb 6 10:03 AM, Tulkarm, Weather by CustomWeather, © 2016

Note: Actual official high and low records may vary slightly from our data, if they occured in-between our weather recording intervals... More about our weather records

Advertising

Tulkarm Weather History for the Previous 24 Hours

 ConditionsComfort  
Time TempWeatherWind HumidityBarometerVisibility
10:03 AM
Sat, Feb 6
61 °FScattered clouds.25 mph72%29.98 "HgN/A
9:50 AM61 °FPartly sunny.25 mph68%29.98 "HgN/A
8:50 AM63 °FScattered clouds.23 mph64%29.98 "HgN/A
7:50 AM63 °FPassing clouds.23 mph56%29.98 "HgN/A
6:50 AM63 °FScattered clouds.23 mph59%29.95 "HgN/A
6:00 AM63 °FPassing clouds.20 mph73%29.98 "Hg6 mi
9:50 PM
Fri, Feb 5
63 °FPassing clouds.8 mph77%30.01 "Hg6 mi
8:50 PM63 °FPassing clouds.10 mph77%30.01 "Hg6 mi
7:50 PM63 °FPassing clouds.8 mph83%29.98 "Hg6 mi
6:50 PM63 °FPassing clouds.9 mph83%29.98 "Hg4 mi
5:50 PM63 °FPassing clouds.2 mph83%29.98 "HgN/A
4:50 PM64 °FScattered clouds.8 mph78%29.95 "HgN/A
3:50 PM66 °FSunny.9 mph68%29.92 "Hg10 mi
2:50 PM68 °FSunny.9 mph56%29.92 "Hg10 mi
1:50 PM70 °FSunny.12 mph46%29.92 "Hg10 mi
12:50 PM68 °FSunny.2 mph56%29.92 "Hg10 mi
11:50 AM68 °FSunny.5 mph53%29.95 "Hg10 mi
Weather by CustomWeather, © 2016

See weather overviewHow to use our weather pages